TimeCDT,TemperatureF,Dew PointF,Humidity,Sea Level PressureIn,VisibilityMPH,Wind Direction,Wind SpeedMPH,Gust SpeedMPH,PrecipitationIn,Events,Conditions,WindDirDegrees,DateUTC
12:53 AM,57.9,57.0,97,29.94,10.0,Calm,Calm,-,N/A,,Scattered Clouds,0,2013-03-19 05:53:00
1:30 AM,57.2,57.2,100,29.96,10.0,SSW,5.8,-,N/A,Thunderstorm,Overcast,210,2013-03-19 06:30:00
1:53 AM,59.0,57.0,93,29.99,3.0,West,10.4,32.2,N/A,Rain-Thunderstorm,Heavy Rain,280,2013-03-19 06:53:00
1:56 AM,59.0,57.2,94,29.98,4.0,NW,11.5,27.6,N/A,Rain-Thunderstorm,Rain,310,2013-03-19 06:56:00
2:23 AM,59.0,55.4,88,29.91,10.0,North,15.0,24.2,N/A,Rain,Light Rain,360,2013-03-19 07:23:00
2:53 AM,60.1,55.9,86,29.87,10.0,Calm,Calm,-,N/A,,Mostly Cloudy,0,2013-03-19 07:53:00
3:53 AM,57.9,55.0,90,29.95,10.0,SW,6.9,-,N/A,,Clear,220,2013-03-19 08:53:00
4:53 AM,57.9,55.0,90,29.96,10.0,West,8.1,-,N/A,,Mostly Cloudy,280,2013-03-19 09:53:00
5:53 AM,57.9,55.9,93,29.99,10.0,NNW,8.1,-,N/A,,Overcast,340,2013-03-19 10:53:00
6:53 AM,57.9,55.9,93,30.01,10.0,North,8.1,-,N/A,,Overcast,350,2013-03-19 11:53:00
7:36 AM,57.2,55.4,94,30.05,10.0,North,9.2,-,N/A,,Overcast,10,2013-03-19 12:36:00
7:53 AM,57.0,55.0,93,30.06,10.0,North,13.8,19.6,N/A,,Overcast,360,2013-03-19 12:53:00
8:53 AM,57.0,53.1,87,30.08,10.0,NNE,9.2,-,N/A,,Overcast,20,2013-03-19 13:53:00
9:53 AM,59.0,53.1,81,30.08,10.0,NNE,10.4,-,N/A,,Overcast,20,2013-03-19 14:53:00
10:53 AM,60.1,52.0,75,30.09,10.0,Variable,3.5,-,N/A,,Scattered Clouds,0,2013-03-19 15:53:00
11:53 AM,66.0,52.0,60,30.07,10.0,Variable,5.8,-,N/A,,Clear,0,2013-03-19 16:53:00
12:53 PM,66.9,51.1,57,30.06,10.0,Calm,Calm,-,N/A,,Clear,0,2013-03-19 17:53:00
1:53 PM,70.0,51.1,51,30.03,10.0,South,5.8,-,N/A,,Clear,170,2013-03-19 18:53:00
2:53 PM,73.0,48.9,42,30.01,10.0,ESE,5.8,-,N/A,,Clear,110,2013-03-19 19:53:00
3:53 PM,73.9,46.0,37,30.00,10.0,Variable,3.5,-,N/A,,Clear,0,2013-03-19 20:53:00
4:53 PM,75.0,43.0,32,30.00,10.0,North,5.8,-,N/A,,Clear,350,2013-03-19 21:53:00
5:53 PM,73.0,43.0,34,29.99,10.0,NNE,6.9,-,N/A,,Clear,20,2013-03-19 22:53:00
6:53 PM,68.0,44.1,42,30.00,10.0,NNE,4.6,-,N/A,,Clear,20,2013-03-19 23:53:00
7:53 PM,63.0,45.0,52,30.02,10.0,North,5.8,-,N/A,,Clear,10,2013-03-20 00:53:00
8:53 PM,60.1,45.0,57,30.03,10.0,NNE,5.8,-,N/A,,Clear,30,2013-03-20 01:53:00
9:53 PM,57.9,43.0,58,30.04,10.0,NNE,5.8,-,N/A,,Clear,30,2013-03-20 02:53:00
10:53 PM,57.0,41.0,55,30.05,10.0,NNE,6.9,-,N/A,,Clear,30,2013-03-20 03:53:00
11:53 PM,55.0,39.0,55,30.06,10.0,NNE,5.8,-,N/A,,Clear,30,2013-03-20 04:53:00